This demonstration page uses our WeatherBlox Daily Observations layout. Learn more.

Left ArrowRight Arrow

39.12711, -84.51439

Hourly Observations for June 15, 2017

Temp ( °F °C ) Dew Point ( °F °C ) Humidity (%) Winds ( mph kmh ) Pressure ( in mb ) Visibility ( mi km ) Precip ( " mm )
12:53 am 00:53 Cloudy 74 23.3 71 21.7 91 91 NW 5 7 29.98 1015 10 16 0.00 0.00
1:53 am 01:53 Cloudy 72 22.2 71 21.7 97 97 SW 5 7 29.94 1014 10 16 0.00 0.00
2:53 am 02:53 Mostly Clear 71 21.7 70 21.1 96 96 Calm 29.91 1013 10 16 0.00 0.00
3:36 am 03:36 Clear with Mist and Fog 69 20.6 69 20.6 100 100 Calm 29.91 1013 2 3 0.00 0.00
3:50 am 03:50 Mostly Clear with Mist and Fog 70 21 70 21 100 100 Calm 29.91 1013 3 5 0.00 0.00
3:53 am 03:53 Mostly Clear with Mist and Fog 69 20.6 69 20.6 100 100 Calm 29.91 1013 4 6 0.00 0.00
4:14 am 04:14 Mostly Cloudy with Mist and Fog 68 20 68 20 100 100 Calm 29.91 1013 2 3 0.00 0.00
4:27 am 04:27 Mostly Cloudy with Mist and Fog 69 20.6 69 20.6 100 100 ESE 3 6 29.91 1013 4 6 0.00 0.00
4:53 am 04:53 Mostly Cloudy 71 21.7 70 21.1 96 96 W 14 22 29.95 1014 7 11 0.00 0.00
4:59 am 04:59 Cloudy with Heavy Rain 71 21.7 69 20.6 94 94 SW 12 19 29.94 1014 2 3 0.13 3.30
5:06 am 05:06 Cloudy with Rain 70 21.1 68 20 93 93 WSW 15 24 29.94 1014 3 4 0.14 3.56
5:09 am 05:09 Cloudy with Nearby Thunderstorms 70 21.1 68 20 93 93 W 16 26 29.91 1013 7 11 0.14 3.56
5:30 am 05:30 Mostly Cloudy with Rain 69 20.6 68 20 96 96 W 7 11 29.91 1013 7 11 0.16 4.06
5:53 am 05:53 Mostly Cloudy with Rain 69 20.6 67 19.4 93 93 Calm 29.92 1013 4 6 0.18 4.57
6:53 am 06:53 Mostly Cloudy 68 20 67 19.4 96 96 SW 3 6 29.88 1012 10 16 0.07 1.78
7:00 am 07:00 Mostly Cloudy 67 19.4 67 19.4 100 100 Calm 29.88 1012 10 16 0.00 0.00
7:53 am 07:53 Mostly Cloudy 69 20.6 68 20 96 96 S 3 6 29.86 1011 10 16 0.00 0.00
8:53 am 08:53 Sunny 71 21.7 68 20 90 90 S 6 9 29.88 1012 10 16 0.00 0.00
9:53 am 09:53 Sunny 76 24.4 70 21.1 82 82 SW 9 15 29.89 1012 10 16 0.00 0.00
10:53 am 10:53 Partly Cloudy 79 26.1 71 21.7 77 77 W 10 17 29.90 1013 10 16 0.00 0.00
11:53 am 11:53 Mostly Cloudy 79 26.1 70 21.1 74 74 W 13 20 29.90 1013 10 16 0.00 0.00
12:53 pm 12:53 Sunny 80 26.7 69 20.6 69 69 W 7 11 29.89 1012 10 16 0.00 0.00
1:53 pm 13:53 Mostly Sunny 82 27.8 69 20.6 65 65 W 8 13 29.88 1012 10 16 0.00 0.00
2:53 pm 14:53 Mostly Sunny 82 27.8 69 20.6 65 65 W 10 17 29.87 1012 10 16 0.00 0.00
3:53 pm 15:53 Partly Cloudy 83 28.3 69 20.6 63 63 W 5 7 29.87 1012 10 16 0.00 0.00
4:53 pm 16:53 Partly Cloudy 83 28.3 69 20.6 63 63 VRB 7 11 29.85 1011 10 16 0.00 0.00
5:53 pm 17:53 Partly Cloudy 85 29.4 68 20 57 57 VRB 6 9 29.83 1010 10 16 0.00 0.00
6:53 pm 18:53 Sunny 83 28.3 68 20 61 61 W 8 13 29.83 1010 10 16 0.00 0.00
7:53 pm 19:53 Sunny 80 26.7 69 20.6 69 69 W 6 9 29.84 1011 10 16 0.00 0.00
8:53 pm 20:53 Sunny 79 26.1 69 20.6 72 72 NW 9 15 29.85 1011 10 16 0.00 0.00
9:53 pm 21:53 Clear 77 25 70 21.1 79 79 NW 7 11 29.86 1011 10 16 0.00 0.00
10:53 pm 22:53 Clear 74 23.3 70 21.1 88 88 Calm 29.87 1012 10 16 0.00 0.00
11:53 pm 23:53 Clear 70 21.1 69 20.6 97 97 Calm 29.87 1011 10 16 0.00 0.00

Powered by AerisWeather